Location: Ferintosh
(52.7647°N, 112.9692°W)
Time: 21:20:23
(UTC+00:00)

A-11 Canister half - Pass Details

Date: 19 May 2024
Orbit: 1524 x 1683 km, 47.3° (Epoch: 19 June)

Event Time Altitude Azimuth Distance (km) Brightness Sun altitude
Rises 04:01:55 0° 189° (S) 4,680 11.2 -4.7°
Reaches altitude 10° 04:05:59 10° 173° (S) 3,719 10.6 -5.2°
Maximum altitude 04:12:12 20° 131° (SE) 3,036 10.0 -5.9°
Drops below altitude 10° 04:18:31 10° 89° (E) 3,805 10.7 -6.6°
Sets 04:22:43 0° 74° (ENE) 4,823 11.3 -7.0°
